[[{"header":{"parameterUnit":"m.s-1","parameterCategory":2,"la1":30.2991,"la2":30.254,"lo1":-89.0895,"lo2":-89.0444,"dy":0.0017,"dx":0.0017,"nx":28,"ny":28,"refTime":"2025-05-17T09:00:00:Z","depth":"0","parameterNumber":2,"parameterNumberName":"U-component_of_CURRENTS"},"data":[0,0,0,0,0,0,0,0,0,0,0,0,0,0,0,0,0,0,0,0,0,0,0,0,0,0,0,0,0,0,0,0,0,0,0,0,0,0,0,0,0,0,0,0,0,0,0,0,0,0,0,0,0,0,0,0,0,0,0.1711,0.1713,0,0.1887,0.1888,0.189,0.191,0.1909,0.1907,0.1906,0.1922,0.1924,0.1925,0,0,0,0,0,0,0,0,0,0,0,0,0,0.1449,0.1453,0.1711,0.1714,0.1716,0.1886,0.1888,0.189,0.1911,0.1909,0.1907,0.1906,0.1921,0.1923,0.1925,0,0,0,0,0,0,0,0,0,0,0,0,0,0.1584,0.1455,0.1711,0.175,0.1755,0.1886,0.1889,0.1891,0.1911,0.1909,0.1907,0.1905,0.1921,0.1923,0.1926,0.1983,0,0,0.1934,0.1935,0,0,0,0,0,0,0,0,0.1576,0.1593,0.1741,0.1747,0.1754,0.1878,0.1802,0.1915,0.1911,0.1848,0.1906,0.1904,0.1896,0.1901,0.1935,0.1984,0.1985,0.1934,0.1935,0.1936,0.1937,0,0,0,0,0,0,0,0.1567,0.1586,0.1777,0.1744,0.1752,0.1778,0.1794,0.1824,0.1875,0.1853,0.1856,0.1882,0.1898,0.1933,0.1935,0.1985,0.1934,0.1936,0.1938,0.1939,0.2041,0.2042,0,0,0,0,0,0,0.1553,0.1577,0.1771,0.1782,0.1662,0.1784,0.1802,0.1837,0.1879,0.1886,0.1884,0.1883,0.193,0.1932,0.1936,0.1969,0.1936,0.1939,0.194,0.204,0.2041,0.2042,0,0,0,0,0,0,0.1547,0.1569,0.1764,0.1686,0.1713,0.1791,0.183,0.1842,0.1869,0.1905,0.1907,0.1898,0.1928,0.1932,0.1963,0.1971,0.194,0.1942,0.2038,0.204,0.2042,0.2059,0,0,0,0,0,0,0.1539,0.1566,0.1585,0.1685,0.1717,0.1839,0.1833,0.1847,0.1891,0.189,0.1919,0.1919,0.1927,0.1959,0.1966,0.1974,0.1944,0.2037,0.2039,0.2041,0.2057,0.2062,0.2065,0,0,0,0,0,0.1529,0.1573,0.1585,0.1609,0.1741,0.1841,0.186,0.1904,0.1893,0.1917,0.1932,0.1917,0.1977,0.1963,0.197,0.1979,0.2036,0.2038,0.2041,0.2056,0.2061,0.2065,0,0,0,0,0,0,0.1478,0.1582,0.1597,0.1671,0.1745,0.1845,0.1885,0.1906,0.1943,0.1936,0.1944,0.1947,0.1979,0.1982,0.1966,0.2016,0.2,0.2004,0.2009,0.2014,0.2018,0.202,0.1946,0,0,0,0,0,0.1475,0.1529,0.1626,0.1685,0.1723,0.1798,0.1842,0.1876,0.1928,0.1942,0.1965,0.1981,0.2003,0.2007,0.2037,0.2067,0.2128,0.2075,0.2079,0.2082,0.2089,0.2199,0.2214,0.2051,0.2051,0.2051,0,0,0.1474,0.1538,0.157,0.1677,0.1738,0.1805,0.1819,0.1896,0.1933,0.1938,0.1987,0.2006,0.2018,0.2055,0.2066,0.205,0.2167,0.2085,0.2088,0.2094,0.2203,0.2219,0.2234,0.2053,0.2053,0.2052,0,0,0.1515,0.1556,0.1618,0.1675,0.1771,0.1816,0.1833,0.1931,0.1951,0.2008,0.2015,0.204,0.2079,0.2094,0.21,0.2145,0.2193,0.2145,0.2156,0.2263,0.2277,0.2291,0.2419,0.2444,0.2135,0.2135,0.2135,0,0.151,0.1595,0.165,0.1721,0.1764,0.1815,0.1877,0.1919,0.2008,0.2026,0.2018,0.2094,0.2098,0.2135,0.2144,0.2152,0.2235,0.2133,0.2269,0.2284,0.2297,0.2426,0.2453,0.2136,0.2136,0.2136,0.2136,0,0.16,0.1655,0.1698,0.1789,0.1838,0.1904,0.1962,0.2002,0.2019,0.2058,0.2108,0.2136,0.2171,0.2174,0.2168,0.2252,0.2291,0.2272,0.2258,0.2315,0.2447,0.2475,0.2138,0.2138,0.2137,0.2137,0,0,0.1627,0.1737,0.175,0.1782,0.1872,0.1924,0.1973,0.2038,0.2062,0.2123,0.2168,0.2198,0.2212,0.2222,0.2227,0.2301,0.2466,0.2323,0.2328,0.2453,0.2742,0.2782,0.2816,0.2481,0.2486,0.2489,0.2807,0,0.1679,0.1789,0.1831,0.191,0.1964,0.1997,0.2035,0.2087,0.2117,0.2173,0.2199,0.2247,0.2228,0.2247,0.2321,0.2435,0.2536,0.2383,0.2666,0.2675,0.2704,0.2848,0.2774,0.3052,0.2835,0.2839,0.2843,0,0.1759,0.1813,0.1896,0.1953,0.1979,0.2019,0.2066,0.211,0.2176,0.2202,0.225,0.2284,0.2388,0.2361,0.2604,0.2517,0.2634,0.2721,0.2735,0.2782,0.2766,0.2954,0.3111,0.2955,0.2886,0.2883,0.288,0,0.1752,0.1855,0.1904,0.1932,0.2009,0.203,0.2063,0.2118,0.2143,0.2229,0.2264,0.2383,0.2464,0.262,0.2781,0.272,0.3074,0.301,0.3165,0.317,0.3167,0.3164,0.3203,0.3204,0.3204,0.3203,0.3202,0,0.1793,0.1832,0.19,0.1929,0.1966,0.2022,0.2058,0.2099,0.2162,0.2232,0.2276,0.2385,0.2538,0.2731,0.2859,0.313,0.3152,0.3222,0.3269,0.3173,0.3167,0.3075,0.2966,0.3215,0.3212,0.321,0.3208,0,0.1783,0.1836,0.1885,0.1951,0.1967,0.1989,0.2041,0.2073,0.2132,0.2232,0.2269,0.2443,0.2726,0.2883,0.3186,0.3253,0.3394,0.3561,0.3449,0.3477,0.3434,0.333,0.3368,0.3269,0.38,0.3803,0.3806,0,0.1795,0.1821,0.1877,0.1896,0.1922,0.1959,0.199,0.205,0.2102,0.2301,0.2373,0.2638,0.285,0.3282,0.3479,0.3748,0.3553,0.3805,0.3651,0.3471,0.3391,0.3195,0.3091,0.3677,0.3678,0.3679,0.368,0,0.1799,0.1807,0.1842,0.1886,0.1916,0.1946,0.201,0.2046,0.2171,0.2277,0.2528,0.2714,0.3119,0.338,0.3682,0.3832,0.3581,0.3836,0.3679,0.334,0.3104,0.3016,0.3432,0.369,0.3689,0.3688,0.3687,0.3687,0.1792,0.1807,0.186,0.19,0.1925,0.1979,0.2,0.21,0.2218,0.2395,0.2611,0.2858,0.3181,0.3613,0.3731,0.3804,0.3711,0.3714,0.3629,0.3468,0.327,0.3723,0.3993,0.3994,0.3995,0.3995,0.3996,0,0.1821,0.1857,0.1884,0.1941,0.1961,0.198,0.205,0.2074,0.2229,0.2421,0.2619,0.2961,0.3217,0.3442,0.3637,0.3561,0.3404,0.3468,0.3132,0.3058,0.3523,0.3407,0.3525,0.3525,0.3525,0.3525,0.3525,0.3525,0.1852,0.1899,0.1924,0.199,0.2011,0.2021,0.2053,0.2101,0.2202,0.2403,0.2576,0.2748,0.3034,0.3264,0.3264,0.3229,0.2914,0.2874,0.2781,0.304,0.3052,0.3063,0.2928,0.2943,0.2942,0.2219,0.2213,0.2209]},{"header":{"parameterUnit":"m.s-1","parameterCategory":2,"la1":30.2991,"la2":30.254,"lo1":-89.0895,"lo2":-89.0444,"dy":0.0017,"dx":0.0017,"nx":28,"ny":28,"refTime":"2025-05-17T09:00:00:Z","depth":"0","parameterNumber":3,"parameterNumberName":"V-component_of_CURRENTS"},"data":[0,0,0,0,0,0,0,0,0,0,0,0,0,0,0,0,0,0,0,0,0,0,0,0,0,0,0,0,0,0,0,0,0,0,0,0,0,0,0,0,0,0,0,0,0,0,0,0,0,0,0,0,0,0,0,0,0,0,-0.0192,-0.0193,0,-0.0207,-0.0206,-0.0206,-0.0145,-0.0144,-0.0143,-0.0142,-0.0171,-0.0172,-0.0174,0,0,0,0,0,0,0,0,0,0,0,0,0,-0.0112,-0.0114,-0.0192,-0.0193,-0.0193,-0.0207,-0.0206,-0.0206,-0.0145,-0.0144,-0.0142,-0.0141,-0.017,-0.0172,-0.0174,0,0,0,0,0,0,0,0,0,0,0,0,0,-0.0133,-0.0114,-0.0192,-0.0169,-0.0168,-0.0207,-0.0206,-0.0206,-0.0146,-0.0144,-0.0142,-0.014,-0.0169,-0.0172,-0.0175,-0.0229,0,0,-0.0184,-0.0185,0,0,0,0,0,0,0,0,-0.0132,-0.0135,-0.0172,-0.0171,-0.017,-0.0177,-0.0189,-0.0216,-0.0146,-0.0148,-0.0142,-0.0139,-0.018,-0.0181,-0.0179,-0.0231,-0.0232,-0.0184,-0.0186,-0.0187,-0.0188,0,0,0,0,0,0,0,-0.0131,-0.0135,-0.0191,-0.0173,-0.0172,-0.0159,-0.0159,-0.0193,-0.0169,-0.0147,-0.0145,-0.0157,-0.0178,-0.0177,-0.018,-0.0232,-0.0184,-0.0186,-0.0188,-0.0189,-0.0304,-0.0305,0,0,0,0,0,0,-0.0144,-0.0134,-0.0191,-0.0193,-0.0153,-0.0163,-0.0163,-0.0172,-0.0169,-0.0168,-0.0158,-0.0154,-0.0173,-0.0177,-0.0181,-0.0222,-0.0187,-0.0189,-0.0191,-0.0303,-0.0304,-0.0306,0,0,0,0,0,0,-0.0142,-0.0149,-0.0191,-0.0168,-0.0173,-0.0167,-0.0177,-0.0173,-0.0172,-0.0178,-0.0175,-0.0161,-0.0171,-0.0177,-0.0208,-0.0224,-0.0191,-0.0193,-0.0301,-0.0303,-0.0305,-0.0321,0,0,0,0,0,0,-0.0139,-0.0148,-0.0155,-0.0169,-0.0175,-0.022,-0.0179,-0.0175,-0.0185,-0.0179,-0.0181,-0.018,-0.017,-0.0204,-0.0211,-0.0227,-0.0196,-0.03,-0.0302,-0.0305,-0.0319,-0.0323,-0.0327,0,0,0,0,0,-0.0136,-0.0155,-0.0155,-0.0162,-0.0186,-0.0222,-0.0224,-0.0208,-0.0187,-0.0197,-0.0191,-0.018,-0.0224,-0.0208,-0.0215,-0.0233,-0.0298,-0.0301,-0.0304,-0.0317,-0.0323,-0.0327,0,0,0,0,0,0,-0.0116,-0.0152,-0.0151,-0.0177,-0.0203,-0.0214,-0.0223,-0.022,-0.0222,-0.0212,-0.0204,-0.0206,-0.024,-0.0243,-0.0225,-0.0275,-0.0258,-0.0263,-0.0265,-0.0271,-0.0275,-0.0213,-0.0198,0,0,0,0,0,-0.0122,-0.0148,-0.0177,-0.02,-0.0214,-0.0222,-0.0233,-0.0229,-0.0238,-0.0235,-0.024,-0.0245,-0.0262,-0.0269,-0.0289,-0.0324,-0.0266,-0.034,-0.0344,-0.0347,-0.0304,-0.0224,-0.0214,-0.0316,-0.0316,-0.0316,0,0,-0.0118,-0.0146,-0.0157,-0.0199,-0.0212,-0.0236,-0.0222,-0.0247,-0.0252,-0.0244,-0.0253,-0.027,-0.0278,-0.0305,-0.032,-0.0306,-0.0299,-0.0351,-0.0354,-0.0307,-0.0225,-0.0214,-0.0205,-0.0318,-0.0317,-0.0317,0,0,-0.0138,-0.0153,-0.0183,-0.0209,-0.0247,-0.0253,-0.0266,-0.0288,-0.0277,-0.0311,-0.0294,-0.0307,-0.0355,-0.0336,-0.0339,-0.0383,-0.0329,-0.0411,-0.0374,-0.0298,-0.0287,-0.0277,-0.0222,-0.0206,-0.0405,-0.0405,-0.0405,0,-0.0127,-0.0166,-0.0197,-0.0234,-0.0241,-0.0263,-0.0278,-0.0289,-0.0315,-0.0294,-0.0318,-0.0327,-0.0356,-0.0334,-0.0352,-0.0387,-0.0335,-0.0354,-0.0297,-0.0286,-0.0274,-0.022,-0.0203,-0.0406,-0.0406,-0.0406,-0.0406,0,-0.0173,-0.0196,-0.0217,-0.0261,-0.0278,-0.0299,-0.0318,-0.0325,-0.0329,-0.0323,-0.0316,-0.0341,-0.0321,-0.0363,-0.0376,-0.0321,-0.0309,-0.0315,-0.0271,-0.0264,-0.021,-0.0191,-0.0408,-0.0408,-0.0407,-0.0407,0,0,-0.0157,-0.0227,-0.0233,-0.0231,-0.0283,-0.0289,-0.0306,-0.0297,-0.0258,-0.0301,-0.0234,-0.0298,-0.0278,-0.0278,-0.0293,-0.0247,-0.0169,-0.0246,-0.0242,-0.0168,0.0004,-0.0001,0.0019,-0.0152,-0.0149,-0.0146,-0.0,0,-0.017,-0.0215,-0.0252,-0.0263,-0.027,-0.0281,-0.0279,-0.0273,-0.0263,-0.0213,-0.0213,-0.0179,-0.0255,-0.0229,-0.02,-0.0145,-0.0113,-0.0207,-0.0033,-0.0028,-0.0011,0.0043,0.0009,0.0137,0.0019,0.0022,0.0024,0,-0.02,-0.0213,-0.0225,-0.0216,-0.0217,-0.0223,-0.0168,-0.0171,-0.0123,-0.0108,-0.0071,-0.0053,0.0014,-0.006,0.0051,0.0004,0.0002,0.0018,0.0024,0.0056,0.0005,0.0114,0.0176,-0.0058,0.0054,0.0051,0.0049,0,-0.0151,-0.0188,-0.0176,-0.0183,-0.0189,-0.0165,-0.0157,-0.0125,-0.0082,-0.0008,0.0055,0.0112,0.0199,0.0212,0.0229,0.0163,0.0364,0.0276,0.026,0.0258,0.0286,0.0282,0.0175,0.0342,0.0342,0.0342,0.0341,0,-0.0141,-0.013,-0.0145,-0.0134,-0.0081,-0.0105,-0.0037,-0.0021,0.0043,0.0155,0.0136,0.0276,0.0282,0.0383,0.033,0.0395,0.045,0.031,0.0318,0.027,0.0263,0.0106,-0.0011,0.0347,0.0346,0.0345,0.0344,0,-0.0091,-0.0119,-0.0087,-0.007,-0.0062,-0.0014,0.0028,0.0088,0.0132,0.0292,0.0338,0.0465,0.0622,0.0597,0.0681,0.0571,0.0496,0.0575,0.0509,0.0506,0.0225,0.0109,0.0149,0.0079,0.0584,0.0585,0.0586,0,-0.0069,-0.0054,-0.0021,0.0013,0.0025,0.0074,0.0114,0.0135,0.0221,0.0443,0.056,0.0747,0.0938,0.1026,0.0882,0.0813,0.0603,0.0672,0.0513,0.0245,0.0123,0.0056,-0.0012,0.0528,0.0528,0.0529,0.0529,0,0.0013,0.0022,0.006,0.012,0.0168,0.0226,0.0301,0.0391,0.0492,0.0664,0.0981,0.1164,0.1225,0.1218,0.1055,0.094,0.0509,0.0673,0.0434,0.0121,0.0013,-0.0063,0.0367,0.0532,0.0531,0.0531,0.0531,0.0531,0.0098,0.0152,0.02,0.027,0.0321,0.0441,0.0549,0.0675,0.0893,0.1219,0.1324,0.1624,0.1436,0.1248,0.1032,0.052,0.0555,0.0326,0.0228,0.0199,0.0073,0.05,0.0639,0.064,0.064,0.064,0.0641,0,0.0237,0.029,0.035,0.0465,0.0567,0.0548,0.0727,0.0884,0.1223,0.1474,0.1762,0.1828,0.1538,0.1143,0.0493,0.012,-0.003,-0.009,-0.0241,-0.0276,0.0138,0.0066,0.0041,0.0042,0.0042,0.0042,0.0042,0.0043,0.0327,0.0434,0.0467,0.0685,0.0763,0.0946,0.1079,0.1323,0.1527,0.1908,0.2073,0.2172,0.1807,0.0627,-0.0211,-0.0382,-0.0666,-0.0671,-0.0782,-0.061,-0.0582,-0.0555,-0.0655,-0.0831,-0.0832,-0.1177,-0.1181,-0.1184]}],[{"header":{"parameterUnit":"m.s-1","parameterCategory":2,"la1":30.2991,"la2":30.254,"lo1":-89.0895,"lo2":-89.0444,"dy":0.0017,"dx":0.0017,"nx":28,"ny":28,"refTime":"2025-05-17T09:00:00:Z","depth":"2","parameterNumber":2,"parameterNumberName":"U-component_of_CURRENTS"},"data":[0,0,0,0,0,0,0,0,0,0,0,0,0,0,0,0,0,0,0,0,0,0,0,0,0,0,0,0,0,0,0,0,0,0,0,0,0,0,0,0,0,0,0,0,0,0,0,0,0,0,0,0,0,0,0,0,0,0,0.1188,0.1189,0,0.1218,0.1218,0.1219,0.1211,0.1211,0.121,0.121,0.1219,0.122,0.1221,0,0,0,0,0,0,0,0,0,0,0,0,0,0.1188,0.1188,0.1188,0.1189,0.1189,0.1218,0.1218,0.1219,0.1211,0.1211,0.121,0.121,0.1219,0.122,0.1221,0,0,0,0,0,0,0,0,0,0,0,0,0,0.1198,0.1187,0.1188,0.1191,0.1192,0.1218,0.1218,0.1219,0.1211,0.1211,0.121,0.121,0.1219,0.122,0.1221,0.1238,0,0,0.1224,0.1224,0,0,0,0,0,0,0,0,0.1197,0.1198,0.119,0.1191,0.1192,0.1212,0.1222,0.1225,0.1211,0.1201,0.121,0.1209,0.1217,0.1218,0.1222,0.1238,0.1239,0.1224,0.1224,0.1225,0.1225,0,0,0,0,0,0,0,0.1197,0.1197,0.1198,0.1191,0.1192,0.1213,0.1212,0.1223,0.121,0.1202,0.1202,0.1209,0.1217,0.1221,0.1222,0.1239,0.1224,0.1224,0.1225,0.1225,0.1296,0.1298,0,0,0,0,0,0,0.1195,0.1196,0.1197,0.1199,0.1196,0.1213,0.1213,0.1204,0.121,0.1211,0.121,0.1209,0.122,0.1221,0.1222,0.1257,0.1225,0.1225,0.1226,0.1295,0.1297,0.1298,0,0,0,0,0,0,0.1194,0.1194,0.1196,0.1201,0.1203,0.1213,0.1204,0.1205,0.1218,0.1217,0.1217,0.1222,0.122,0.1221,0.1244,0.1257,0.1226,0.1227,0.1293,0.1296,0.1297,0.1317,0,0,0,0,0,0,0.1194,0.1193,0.1201,0.12,0.1203,0.1221,0.1205,0.1206,0.1223,0.1223,0.1227,0.1227,0.1219,0.1243,0.1245,0.1257,0.1227,0.1292,0.1294,0.1297,0.1315,0.132,0.1324,0,0,0,0,0,0.1193,0.1207,0.12,0.1202,0.1207,0.1222,0.1225,0.123,0.1225,0.1237,0.1241,0.1227,0.126,0.1245,0.1247,0.126,0.1291,0.1294,0.1297,0.1313,0.1319,0.1324,0,0,0,0,0,0,0.1222,0.1208,0.12,0.1212,0.1219,0.1221,0.1241,0.1239,0.1252,0.1253,0.1245,0.1246,0.1267,0.127,0.1253,0.129,0.1273,0.1277,0.1285,0.1291,0.1295,0.1304,0.1228,0,0,0,0,0,0.1228,0.1236,0.1223,0.1243,0.1239,0.1241,0.1252,0.1251,0.1259,0.1264,0.1267,0.1274,0.1282,0.1291,0.1298,0.1323,0.1372,0.1335,0.1339,0.1343,0.1354,0.1455,0.147,0.1308,0.1308,0.1308,0,0,0.1253,0.1247,0.1255,0.1251,0.1254,0.1256,0.1246,0.1265,0.1273,0.1264,0.1285,0.1289,0.1292,0.1314,0.1325,0.1318,0.1417,0.1347,0.1349,0.1358,0.146,0.1476,0.149,0.131,0.131,0.1309,0,0,0.1293,0.1287,0.1294,0.1296,0.1299,0.1293,0.1298,0.1299,0.1301,0.1322,0.1315,0.1332,0.1347,0.1351,0.1354,0.1393,0.1434,0.1398,0.143,0.1528,0.1543,0.1556,0.1646,0.1667,0.1404,0.1404,0.1404,0,0.1321,0.132,0.1307,0.1309,0.1317,0.1306,0.1313,0.1316,0.133,0.134,0.1332,0.1371,0.1363,0.1395,0.1401,0.1401,0.1473,0.1403,0.1535,0.1549,0.1562,0.1652,0.1675,0.1405,0.1405,0.1405,0.1405,0,0.1348,0.1356,0.1365,0.1353,0.1359,0.1375,0.136,0.1372,0.1371,0.1375,0.1411,0.1415,0.1447,0.1438,0.1426,0.1509,0.1535,0.1526,0.1521,0.158,0.167,0.1694,0.1407,0.1406,0.1406,0.1406,0,0,0.1395,0.1382,0.139,0.1386,0.1383,0.1387,0.14,0.1406,0.1429,0.1439,0.1491,0.1482,0.1503,0.151,0.151,0.1575,0.1712,0.1596,0.16,0.1685,0.1954,0.1892,0.1912,0.1745,0.1749,0.1753,0.1982,0,0.1422,0.1426,0.1417,0.1437,0.1433,0.1428,0.1443,0.1452,0.1468,0.1519,0.1527,0.158,0.1526,0.1569,0.162,0.17,0.1777,0.1652,0.1885,0.1891,0.1828,0.1937,0.1706,0.1885,0.2005,0.2009,0.2012,0,0.1448,0.1446,0.1457,0.1463,0.1462,0.1476,0.1503,0.1518,0.1569,0.1595,0.1645,0.1677,0.1762,0.1723,0.1889,0.1826,0.1896,0.1944,0.1954,0.1905,0.1873,0.1845,0.1924,0.2052,0.2049,0.2046,0.2043,0,0.1472,0.1479,0.1486,0.149,0.149,0.1506,0.1515,0.1548,0.1589,0.1676,0.1748,0.1822,0.1914,0.2003,0.2078,0.2026,0.2278,0.222,0.2226,0.2222,0.2073,0.2049,0.2359,0.2359,0.2358,0.2358,0.2357,0,0.1498,0.151,0.1501,0.1507,0.1534,0.153,0.1585,0.1602,0.1687,0.1765,0.1808,0.1912,0.2,0.2132,0.217,0.2284,0.2365,0.2265,0.229,0.2072,0.2047,0.2215,0.2195,0.2366,0.2364,0.2363,0.2361,0,0.1524,0.1516,0.1527,0.1534,0.1543,0.1565,0.1629,0.1682,0.1752,0.1876,0.1931,0.2055,0.222,0.2293,0.2465,0.2419,0.252,0.2535,0.2266,0.2252,0.2376,0.2354,0.2581,0.2581,0.2581,0.2581,0.2581,0,0.1529,0.1536,0.1551,0.1576,0.1586,0.1625,0.1667,0.1716,0.1786,0.1955,0.2033,0.2225,0.2327,0.2532,0.2513,0.2594,0.2615,0.2407,0.2232,0.2404,0.2406,0.2384,0.2364,0.2058,0.2054,0.205,0.2048,0,0.1555,0.1566,0.1586,0.1621,0.1661,0.1696,0.1759,0.1816,0.1899,0.2013,0.2174,0.2274,0.2424,0.2384,0.2448,0.2439,0.2362,0.2336,0.2649,0.2013,0.1923,0.192,0.1915,0.2016,0.2019,0.2022,0.2023,0.2025,0.1598,0.1612,0.1641,0.1667,0.1718,0.175,0.1757,0.1846,0.1936,0.2032,0.2187,0.2221,0.2211,0.218,0.217,0.213,0.2264,0.2119,0.2125,0.2136,0.2011,0.1922,0.1994,0.1997,0.1999,0.2001,0.2003,0,0.1619,0.1643,0.1682,0.1696,0.1717,0.1754,0.1806,0.1782,0.1848,0.1938,0.2041,0.1837,0.1841,0.1854,0.1742,0.1748,0.1685,0.168,0.1565,0.1597,0.1625,0.1468,0.1311,0.1309,0.1308,0.1306,0,0,0.1644,0.166,0.1647,0.1658,0.1692,0.1682,0.1687,0.1672,0.1675,0.1618,0.1585,0.1733,0.1755,0.1489,0.1474,0.1383,0.1473,0.1327,0.1876,0.1769,0.1795,0.1869,0.1664,0,0,0,0,0]},{"header":{"parameterUnit":"m.s-1","parameterCategory":2,"la1":30.2991,"la2":30.254,"lo1":-89.0895,"lo2":-89.0444,"dy":0.0017,"dx":0.0017,"nx":28,"ny":28,"refTime":"2025-05-17T09:00:00:Z","depth":"2","parameterNumber":3,"parameterNumberName":"V-component_of_CURRENTS"},"data":[0,0,0,0,0,0,0,0,0,0,0,0,0,0,0,0,0,0,0,0,0,0,0,0,0,0,0,0,0,0,0,0,0,0,0,0,0,0,0,0,0,0,0,0,0,0,0,0,0,0,0,0,0,0,0,0,0,0,-0.0667,-0.0667,0,-0.0691,-0.0692,-0.0692,-0.0727,-0.0728,-0.0729,-0.073,-0.0782,-0.0782,-0.0783,0,0,0,0,0,0,0,0,0,0,0,0,0,-0.0485,-0.0489,-0.0667,-0.0667,-0.0668,-0.0691,-0.0692,-0.0692,-0.0727,-0.0728,-0.0729,-0.073,-0.0782,-0.0782,-0.0783,0,0,0,0,0,0,0,0,0,0,0,0,0,-0.0541,-0.049,-0.0667,-0.0689,-0.0692,-0.0691,-0.0692,-0.0692,-0.0727,-0.0728,-0.0729,-0.073,-0.0781,-0.0782,-0.0783,-0.0766,0,0,-0.0786,-0.0787,0,0,0,0,0,0,0,0,-0.0538,-0.0548,-0.0686,-0.0688,-0.0691,-0.0709,-0.0647,-0.0719,-0.0727,-0.0712,-0.073,-0.0731,-0.076,-0.0763,-0.0762,-0.0769,-0.0771,-0.0786,-0.0787,-0.0787,-0.0788,0,0,0,0,0,0,0,-0.0534,-0.0546,-0.0675,-0.0686,-0.0689,-0.0642,-0.0652,-0.0659,-0.0728,-0.0713,-0.0716,-0.0721,-0.0762,-0.0761,-0.0764,-0.0772,-0.0786,-0.0787,-0.0788,-0.0788,-0.0794,-0.0793,0,0,0,0,0,0,-0.0543,-0.0544,-0.0674,-0.0676,-0.0617,-0.0645,-0.0657,-0.0701,-0.0728,-0.0733,-0.072,-0.0723,-0.0759,-0.0763,-0.0766,-0.0793,-0.0787,-0.0788,-0.0789,-0.0794,-0.0794,-0.0793,0,0,0,0,0,0,-0.054,-0.0556,-0.0673,-0.0608,-0.062,-0.0648,-0.0696,-0.07,-0.0713,-0.0733,-0.0739,-0.0731,-0.076,-0.0765,-0.078,-0.0794,-0.0789,-0.079,-0.0795,-0.0794,-0.0794,-0.0818,0,0,0,0,0,0,-0.0535,-0.0555,-0.0573,-0.0611,-0.0625,-0.0674,-0.0695,-0.07,-0.0714,-0.0718,-0.0743,-0.0749,-0.0761,-0.0778,-0.0781,-0.0795,-0.0791,-0.0795,-0.0795,-0.0794,-0.0818,-0.0818,-0.0819,0,0,0,0,0,-0.0529,-0.0558,-0.0575,-0.0589,-0.0656,-0.0674,-0.0676,-0.0696,-0.0714,-0.0713,-0.0735,-0.0749,-0.0775,-0.0779,-0.0782,-0.0797,-0.0796,-0.0795,-0.0794,-0.0818,-0.0818,-0.0819,0,0,0,0,0,0,-0.0468,-0.0565,-0.0585,-0.0637,-0.0653,-0.0681,-0.0681,-0.0698,-0.0713,-0.0724,-0.0745,-0.0751,-0.0767,-0.077,-0.0774,-0.0792,-0.0786,-0.0786,-0.0803,-0.0804,-0.0804,-0.0801,-0.0791,0,0,0,0,0,-0.0468,-0.0525,-0.0581,-0.0609,-0.0629,-0.0655,-0.0661,-0.0682,-0.0705,-0.0713,-0.0734,-0.075,-0.076,-0.0775,-0.0779,-0.0792,-0.0783,-0.08,-0.08,-0.0801,-0.0798,-0.0789,-0.0789,-0.079,-0.079,-0.079,0,0,-0.0441,-0.0504,-0.0528,-0.0599,-0.0618,-0.064,-0.0662,-0.0683,-0.0696,-0.0716,-0.0739,-0.0751,-0.0761,-0.0776,-0.0784,-0.0787,-0.0796,-0.08,-0.0801,-0.0797,-0.0788,-0.0788,-0.0788,-0.0789,-0.0789,-0.0789,0,0,-0.0427,-0.0485,-0.0532,-0.0554,-0.0601,-0.0621,-0.0631,-0.0674,-0.0692,-0.0714,-0.0729,-0.0749,-0.077,-0.0781,-0.0789,-0.079,-0.0792,-0.0793,-0.0805,-0.0797,-0.0797,-0.0797,-0.0789,-0.0788,-0.0801,-0.0801,-0.0801,0,-0.039,-0.047,-0.053,-0.0571,-0.0583,-0.0618,-0.064,-0.0658,-0.0693,-0.0707,-0.0725,-0.0753,-0.0772,-0.0784,-0.0795,-0.0795,-0.0787,-0.0809,-0.0799,-0.0799,-0.0798,-0.079,-0.0789,-0.0802,-0.0802,-0.0802,-0.0802,0,-0.0425,-0.0464,-0.0484,-0.0563,-0.0576,-0.0595,-0.0637,-0.0655,-0.0687,-0.0707,-0.0731,-0.0755,-0.0769,-0.0785,-0.08,-0.0806,-0.08,-0.0797,-0.0802,-0.08,-0.0791,-0.0789,-0.0804,-0.0803,-0.0803,-0.0803,0,0,-0.0415,-0.0498,-0.0504,-0.0519,-0.0577,-0.059,-0.0618,-0.0651,-0.0658,-0.0703,-0.0705,-0.0756,-0.0768,-0.0776,-0.0792,-0.0805,-0.0812,-0.0809,-0.0808,-0.0809,-0.0792,-0.0838,-0.084,-0.0809,-0.0808,-0.0808,-0.0789,0,-0.0422,-0.0482,-0.0529,-0.054,-0.0564,-0.0595,-0.0608,-0.0636,-0.0659,-0.0662,-0.0703,-0.07,-0.0763,-0.0758,-0.079,-0.0783,-0.0807,-0.0817,-0.0786,-0.0785,-0.0834,-0.084,-0.0739,-0.0718,-0.0787,-0.0787,-0.0787,0,-0.0459,-0.0489,-0.0519,-0.0534,-0.0549,-0.0558,-0.0578,-0.0592,-0.0609,-0.0621,-0.0643,-0.0651,-0.0672,-0.0712,-0.0747,-0.0748,-0.0782,-0.0795,-0.0794,-0.0827,-0.0828,-0.0729,-0.0712,-0.0784,-0.0784,-0.0784,-0.0784,0,-0.0434,-0.048,-0.0499,-0.0506,-0.0536,-0.0548,-0.0561,-0.0584,-0.0565,-0.0572,-0.0533,-0.0587,-0.0558,-0.0626,-0.0687,-0.0703,-0.0714,-0.0727,-0.0807,-0.081,-0.0713,-0.0708,-0.0762,-0.0762,-0.0762,-0.0762,-0.0762,0,-0.0434,-0.0442,-0.0486,-0.0487,-0.0481,-0.0521,-0.0503,-0.0521,-0.0501,-0.0445,-0.0496,-0.0449,-0.0531,-0.0551,-0.0647,-0.0724,-0.0685,-0.0811,-0.0811,-0.072,-0.0717,-0.0762,-0.0763,-0.0761,-0.0761,-0.0762,-0.0762,0,-0.0394,-0.0436,-0.0437,-0.0464,-0.0468,-0.0459,-0.0436,-0.0403,-0.0404,-0.0319,-0.0298,-0.0307,-0.0347,-0.0451,-0.0528,-0.0637,-0.0723,-0.0767,-0.0665,-0.0657,-0.0835,-0.0836,-0.084,-0.0841,-0.0842,-0.0844,-0.0844,0,-0.0382,-0.0384,-0.0394,-0.0369,-0.0377,-0.0365,-0.0335,-0.0349,-0.0296,-0.0232,-0.0168,-0.0177,-0.0186,-0.034,-0.0481,-0.064,-0.0726,-0.071,-0.0746,-0.0844,-0.0844,-0.0843,-0.0843,-0.0612,-0.0611,-0.061,-0.061,0,-0.0314,-0.0323,-0.0305,-0.0278,-0.0249,-0.0213,-0.0179,-0.0127,-0.0111,-0.0045,0.0019,0.0015,-0.0084,-0.0197,-0.0427,-0.0547,-0.0684,-0.0703,-0.0788,-0.0636,-0.0636,-0.0634,-0.064,-0.0602,-0.0602,-0.0603,-0.0603,-0.0604,-0.024,-0.0214,-0.0201,-0.0187,-0.0127,-0.0083,-0.0058,0.0012,0.0076,0.0223,0.0199,0.0258,0.0098,-0.0121,-0.0341,-0.0573,-0.0612,-0.0709,-0.0708,-0.0708,-0.0714,-0.0719,-0.07,-0.0701,-0.0702,-0.0703,-0.0704,0,-0.0184,-0.0168,-0.0114,-0.0107,-0.005,-0.0044,0.0037,0.01,0.018,0.0386,0.0473,0.0402,0.0254,0.002,-0.0271,-0.0507,-0.0489,-0.0619,-0.0529,-0.0535,-0.0541,-0.0536,-0.0476,-0.0476,-0.0476,-0.0476,0,0,-0.0145,-0.0121,-0.0135,-0.008,-0.0044,0.0024,0.0061,0.0217,0.0366,0.0568,0.0672,0.0788,0.0415,0.0255,-0.0055,-0.0261,-0.0345,-0.0302,-0.0456,-0.0318,-0.032,-0.0565,-0.0562,0,0,0,0,0]}],[{"header":{"parameterUnit":"m.s-1","parameterCategory":2,"la1":30.2991,"la2":30.254,"lo1":-89.0895,"lo2":-89.0444,"dy":0.0017,"dx":0.0017,"nx":28,"ny":28,"refTime":"2025-05-17T09:00:00:Z","depth":"4","parameterNumber":2,"parameterNumberName":"U-component_of_CURRENTS"},"data":[0,0,0,0,0,0,0,0,0,0,0,0,0,0,0,0,0,0,0,0,0,0,0,0,0,0,0,0,0,0,0,0,0,0,0,0,0,0,0,0,0,0,0,0,0,0,0,0,0,0,0,0,0,0,0,0,0,0,0.0276,0.0276,0,0.0255,0.0255,0.0255,0.0309,0.0311,0.0313,0.0314,0.0405,0.0406,0.0407,0,0,0,0,0,0,0,0,0,0,0,0,0,0.0306,0.0305,0.0276,0.0276,0.0276,0.0255,0.0255,0.0255,0.0309,0.0311,0.0313,0.0315,0.0405,0.0406,0.0407,0,0,0,0,0,0,0,0,0,0,0,0,0,0.0289,0.0305,0.0276,0.0301,0.0303,0.0255,0.0255,0.0255,0.0308,0.0311,0.0314,0.0316,0.0405,0.0406,0.0407,0.036,0,0,0.041,0.0411,0,0,0,0,0,0,0,0,0.029,0.0288,0.0297,0.0299,0.0301,0.0289,0.0299,0.0296,0.0308,0.0305,0.0314,0.0318,0.0375,0.0379,0.0366,0.0364,0.0368,0.041,0.0411,0.0412,0.0412,0,0,0,0,0,0,0,0.0291,0.0289,0.0267,0.0297,0.0299,0.0294,0.0295,0.0298,0.0327,0.0306,0.031,0.0308,0.0377,0.0365,0.0369,0.037,0.041,0.0411,0.0412,0.0413,0.0484,0.0485,0,0,0,0,0,0,0.0295,0.029,0.0267,0.0266,0.0303,0.0292,0.0293,0.0289,0.0324,0.0332,0.0306,0.0311,0.0361,0.0367,0.0372,0.0451,0.0412,0.0413,0.0413,0.0483,0.0485,0.0486,0,0,0,0,0,0,0.0296,0.0293,0.0268,0.0279,0.0275,0.0289,0.0284,0.0287,0.0317,0.0324,0.0334,0.0338,0.0364,0.0371,0.0411,0.0451,0.0413,0.0414,0.0482,0.0484,0.0485,0.0524,0,0,0,0,0,0,0.0297,0.0294,0.0303,0.0279,0.0275,0.0263,0.0282,0.0285,0.031,0.0317,0.0353,0.0362,0.0366,0.0409,0.0412,0.0452,0.0415,0.048,0.0482,0.0485,0.0522,0.0527,0.0532,0,0,0,0,0,0.0298,0.0286,0.0304,0.0302,0.0284,0.0263,0.0261,0.0279,0.0309,0.0317,0.0351,0.0363,0.0427,0.041,0.0414,0.0454,0.0479,0.0482,0.0484,0.0519,0.0526,0.0532,0,0,0,0,0,0,0.0302,0.0289,0.0309,0.0296,0.0297,0.0274,0.0273,0.0295,0.0322,0.0341,0.0365,0.0375,0.0419,0.043,0.0411,0.0483,0.046,0.0463,0.0485,0.0492,0.0497,0.0604,0.0416,0,0,0,0,0,0.0307,0.0298,0.0294,0.0286,0.0285,0.029,0.029,0.0305,0.0317,0.0333,0.036,0.0394,0.0421,0.0455,0.046,0.0499,0.0529,0.0532,0.0538,0.0542,0.0632,0.067,0.0687,0.0495,0.0495,0.0495,0,0,0.0304,0.0298,0.0294,0.0288,0.0284,0.0292,0.0297,0.0297,0.0331,0.0337,0.0391,0.04,0.0429,0.0468,0.0493,0.0495,0.06,0.0546,0.0549,0.0639,0.0675,0.0694,0.0711,0.0497,0.0497,0.0496,0,0,0.0285,0.0291,0.0282,0.0287,0.0293,0.0297,0.0312,0.0313,0.0345,0.0385,0.0402,0.0459,0.0482,0.0529,0.0554,0.06,0.0609,0.0587,0.0726,0.0758,0.0776,0.0791,0.0802,0.0819,0.0612,0.0612,0.0612,0,0.0291,0.0282,0.0277,0.028,0.0295,0.0312,0.0327,0.0349,0.0375,0.043,0.0417,0.0525,0.0528,0.0636,0.0664,0.0619,0.0634,0.0691,0.0768,0.0785,0.08,0.0808,0.0826,0.0614,0.0614,0.0613,0.0613,0,0.0272,0.028,0.027,0.0293,0.0311,0.0314,0.0353,0.0403,0.0449,0.0491,0.06,0.0616,0.0714,0.0697,0.0708,0.0832,0.08,0.0746,0.0754,0.0823,0.0825,0.0843,0.0617,0.0616,0.0616,0.0615,0,0,0.024,0.0257,0.0256,0.0291,0.0323,0.0339,0.0414,0.0497,0.0589,0.0641,0.076,0.0835,0.0889,0.0928,0.0933,0.0992,0.1073,0.0951,0.0951,0.0971,0.1146,0.1004,0.1009,0.1026,0.1031,0.1034,0.1084,0,0.0234,0.0242,0.0263,0.0312,0.0328,0.0399,0.0478,0.0573,0.0647,0.0757,0.0849,0.0942,0.0957,0.1014,0.1085,0.107,0.1135,0.1067,0.1077,0.1079,0.095,0.1031,0.1049,0.1098,0.1102,0.1105,0.1107,0,0.0211,0.0228,0.026,0.0357,0.0377,0.0443,0.0606,0.0683,0.0847,0.0916,0.1068,0.1102,0.1256,0.1208,0.133,0.1285,0.1272,0.1249,0.1248,0.1145,0.0974,0.1029,0.114,0.1137,0.1135,0.1133,0.1131,0,0.0187,0.0234,0.027,0.0293,0.0401,0.0496,0.06,0.0762,0.0849,0.1048,0.111,0.1281,0.1356,0.1408,0.1398,0.1377,0.1464,0.139,0.1261,0.1247,0.1341,0.1324,0.1494,0.1494,0.1494,0.1493,0.1493,0,0.0166,0.0196,0.0283,0.0309,0.0419,0.0528,0.0685,0.0814,0.0987,0.107,0.122,0.1272,0.1415,0.1449,0.1445,0.1418,0.1504,0.1348,0.1279,0.1343,0.1327,0.1349,0.1332,0.1495,0.1495,0.1494,0.1494,0,0.0124,0.0161,0.0212,0.0346,0.0404,0.0508,0.0714,0.0816,0.1003,0.1108,0.1172,0.1312,0.1364,0.1436,0.1484,0.1449,0.143,0.1386,0.1467,0.1389,0.1185,0.1169,0.1287,0.1283,0.128,0.1277,0.1275,0,0.0099,0.0117,0.0222,0.0263,0.0336,0.05,0.06,0.0817,0.0882,0.1071,0.107,0.1203,0.1262,0.1264,0.1332,0.1357,0.1324,0.1337,0.1306,0.1258,0.1178,0.1167,0.1156,0.127,0.1269,0.1268,0.1267,0,0.0059,0.0092,0.0131,0.0207,0.0308,0.04,0.0547,0.0593,0.0796,0.0935,0.0986,0.1055,0.11,0.1167,0.1216,0.1203,0.1353,0.1302,0.1309,0.128,0.1237,0.1159,0.1152,0.1255,0.1257,0.1258,0.1259,0,0.0028,0.0034,0.0078,0.0156,0.0235,0.0286,0.0388,0.0478,0.0592,0.0792,0.0774,0.0913,0.1044,0.1077,0.1079,0.1115,0.1101,0.1089,0.1107,0.1121,0.1044,0.0964,0.0893,0,0,0,0,0,0.0003,-0.0001,0.0032,0.01,0.0164,0.0221,0.0322,0.0414,0.057,0.058,0.0704,0.0734,0.0833,0.0887,0.0892,0.097,0.108,0.0968,0.1067,0.1191,0.1204,0.1129,0,0,0,0,0,0,-0.0021,-0.0009,-0.0001,0.0029,0.007,0.0143,0.0205,0.0308,0.0322,0.0484,0.0533,0.0677,0.0763,0.0828,0.0875,0.0895,0.0939,0.106,0.1058,0.1183,0.1195,0.1206,0.1134,0,0,0,0,0]},{"header":{"parameterUnit":"m.s-1","parameterCategory":2,"la1":30.2991,"la2":30.254,"lo1":-89.0895,"lo2":-89.0444,"dy":0.0017,"dx":0.0017,"nx":28,"ny":28,"refTime":"2025-05-17T09:00:00:Z","depth":"4","parameterNumber":3,"parameterNumberName":"V-component_of_CURRENTS"},"data":[0,0,0,0,0,0,0,0,0,0,0,0,0,0,0,0,0,0,0,0,0,0,0,0,0,0,0,0,0,0,0,0,0,0,0,0,0,0,0,0,0,0,0,0,0,0,0,0,0,0,0,0,0,0,0,0,0,0,0.0312,0.0313,0,0.0342,0.0342,0.0342,0.0335,0.0335,0.0335,0.0334,0.0241,0.0238,0.0236,0,0,0,0,0,0,0,0,0,0,0,0,0,0.0219,0.0221,0.0312,0.0313,0.0314,0.0342,0.0342,0.0342,0.0335,0.0335,0.0335,0.0334,0.0241,0.0239,0.0236,0,0,0,0,0,0,0,0,0,0,0,0,0,0.0252,0.0222,0.0312,0.0316,0.0317,0.0342,0.0342,0.0342,0.0335,0.0335,0.0335,0.0334,0.0242,0.0239,0.0236,0.0221,0,0,0.0225,0.0224,0,0,0,0,0,0,0,0,0.025,0.0255,0.0315,0.0316,0.0317,0.0338,0.0275,0.0297,0.0335,0.0325,0.0334,0.0334,0.0264,0.0259,0.0262,0.0217,0.0213,0.0225,0.0223,0.0221,0.022,0,0,0,0,0,0,0,0.0248,0.0254,0.032,0.0316,0.0317,0.0307,0.0311,0.0279,0.0291,0.0325,0.0326,0.0335,0.0263,0.0265,0.0259,0.0212,0.0225,0.0222,0.022,0.0218,0.0142,0.0142,0,0,0,0,0,0,0.0254,0.0252,0.0319,0.0322,0.0286,0.0309,0.0314,0.0329,0.0294,0.029,0.0336,0.0335,0.0271,0.0263,0.0256,0.0256,0.0221,0.0218,0.0216,0.0142,0.0142,0.0142,0,0,0,0,0,0,0.0252,0.026,0.0318,0.029,0.0297,0.0312,0.0328,0.0329,0.0339,0.0304,0.0297,0.0345,0.0271,0.0261,0.0244,0.0251,0.0216,0.0213,0.0142,0.0142,0.0142,0.0244,0,0,0,0,0,0,0.0249,0.0259,0.0273,0.0291,0.0299,0.0333,0.0329,0.033,0.0346,0.0346,0.0309,0.03,0.027,0.025,0.0241,0.0246,0.0211,0.0142,0.0142,0.0142,0.024,0.0247,0.0253,0,0,0,0,0,0.0246,0.0266,0.0274,0.0282,0.0317,0.0334,0.0337,0.0343,0.0347,0.035,0.0337,0.0301,0.0242,0.0248,0.0237,0.0242,0.0142,0.0142,0.0142,0.0238,0.0246,0.0253,0,0,0,0,0,0,0.0225,0.0268,0.0277,0.0307,0.032,0.0334,0.0347,0.0351,0.0345,0.0348,0.0311,0.0301,0.0288,0.0247,0.0254,0.0216,0.0182,0.018,0.0258,0.0265,0.0272,0.0258,0.0208,0,0,0,0,0,0.0231,0.0264,0.0287,0.0312,0.0323,0.0337,0.0347,0.0352,0.0353,0.0352,0.033,0.03,0.0278,0.0261,0.0231,0.0214,0.0153,0.0204,0.0211,0.0217,0.0197,0.0104,0.0101,0.0142,0.0142,0.0142,0,0,0.0231,0.026,0.0277,0.0311,0.0326,0.0354,0.0341,0.0363,0.0383,0.0339,0.0354,0.0325,0.028,0.0269,0.0256,0.0237,0.0183,0.0217,0.0223,0.0199,0.0104,0.01,0.0096,0.0142,0.0142,0.0142,0,0,0.0258,0.0273,0.0315,0.0331,0.0363,0.0368,0.0378,0.0395,0.0398,0.041,0.0384,0.036,0.0331,0.0299,0.0279,0.0296,0.0224,0.0286,0.0304,0.0217,0.0212,0.0208,0.0172,0.0163,0.0285,0.0285,0.0285,0,0.0255,0.0311,0.0324,0.0366,0.0382,0.038,0.0414,0.0421,0.0429,0.0427,0.0423,0.0373,0.0343,0.0314,0.0325,0.0311,0.0259,0.0289,0.0226,0.0219,0.0212,0.0176,0.0165,0.029,0.0289,0.0289,0.0288,0,0.0321,0.0357,0.0379,0.0435,0.0448,0.0472,0.0485,0.0496,0.0499,0.0494,0.0471,0.0429,0.0386,0.0383,0.0364,0.0306,0.0289,0.0252,0.021,0.0214,0.0177,0.0163,0.0297,0.0295,0.0293,0.0292,0,0,0.0332,0.0411,0.0419,0.045,0.0483,0.05,0.0531,0.0545,0.0557,0.0541,0.0529,0.0498,0.0452,0.0423,0.0383,0.0315,0.0255,0.0267,0.026,0.0241,0.0088,0.012,0.0108,0.02,0.0197,0.0194,0.0099,0,0.0377,0.0456,0.0486,0.0545,0.0575,0.0582,0.0612,0.062,0.0607,0.059,0.053,0.0495,0.0473,0.0441,0.0374,0.0267,0.0214,0.0286,0.0077,0.0072,0.0105,0.0091,0.0185,0.0089,0.0085,0.0083,0.0081,0,0.0438,0.0475,0.0545,0.0596,0.0612,0.0661,0.0683,0.0707,0.068,0.0657,0.0598,0.0527,0.0433,0.0404,0.0228,0.027,0.0187,0.0113,0.0107,0.0079,0.0076,0.0068,0.0056,0.0058,0.0059,0.0061,0.0063,0,0.0438,0.0516,0.057,0.0589,0.0649,0.0698,0.0737,0.0741,0.0746,0.0684,0.0646,0.0527,0.0454,0.0312,0.018,0.0178,-0.001,-0.0037,-0.0075,-0.0071,-0.0115,-0.011,-0.0165,-0.0165,-0.0165,-0.0165,-0.0164,0,0.0467,0.0508,0.0592,0.062,0.0688,0.0733,0.0794,0.0803,0.0797,0.077,0.0677,0.06,0.0416,0.0289,0.0169,0.0019,-0.0022,-0.0083,-0.0111,-0.0061,-0.0049,-0.0122,-0.0115,-0.0168,-0.0167,-0.0167,-0.0166,0,0.0461,0.0516,0.0573,0.0657,0.0699,0.0752,0.0849,0.0878,0.0865,0.0816,0.078,0.0634,0.0454,0.031,0.0083,0.0015,-0.0139,-0.017,-0.0065,-0.0083,-0.0137,-0.0125,-0.026,-0.026,-0.026,-0.026,-0.026,0,0.0467,0.05,0.0593,0.0637,0.0695,0.079,0.0859,0.0908,0.0904,0.0822,0.0771,0.0613,0.0495,0.023,0.0076,-0.0127,-0.0146,-0.0199,-0.0213,-0.0142,-0.0156,-0.0143,-0.013,-0.026,-0.026,-0.026,-0.026,0,0.0445,0.0486,0.0528,0.0626,0.0721,0.0795,0.0881,0.0874,0.0884,0.0874,0.0729,0.0583,0.0407,0.0204,0.0081,-0.0072,-0.0166,-0.0201,-0.0203,-0.0216,-0.0144,-0.0154,-0.0142,-0.0261,-0.0261,-0.0261,-0.0261,0,0.0423,0.0445,0.0515,0.06,0.0702,0.0761,0.0817,0.0825,0.0835,0.0748,0.0699,0.0526,0.0435,0.0233,0.0098,-0.0027,-0.0081,-0.012,-0.0128,-0.0129,-0.0056,0.0057,-0.0035,0,0,0,0,0,0.0396,0.0425,0.0488,0.0575,0.0671,0.0737,0.0804,0.0841,0.0844,0.0747,0.0726,0.0558,0.0342,0.0243,0.0114,0.0078,-0.0104,-0.0075,-0.0153,-0.0261,-0.0261,-0.0195,0,0,0,0,0,0,0.0379,0.0429,0.0463,0.0536,0.0596,0.0703,0.0748,0.0757,0.0695,0.0676,0.0559,0.0534,0.0321,0.0409,0.011,0.0073,0.0009,-0.0163,-0.0166,-0.0262,-0.0261,-0.0261,-0.0193,0,0,0,0,0]}]]